DW2070 Weather Reports


Display with metric or nautical units.
time (UTC)temp
F
wind
direction
speed
MPH
gust
MPH
rain 1hr
in
rain 24hr
in
rain mn
in
humidity
%
barometer
mb
20260508202004 70 249 4.0 10.0 0.00 0.00 0.00 69 1016.1
20260508201025 70 254 5.0 10.0 0.00 0.00 0.00 70 1016.1
20260508200004 70 254 4.0 11.0 0.00 0.00 0.00 68 1016.2
20260508195004 71 240 4.0 10.0 0.00 0.00 0.00 69 1016.3
20260508194004 70 249 3.0 11.0 0.00 0.00 0.00 69 1016.3
20260508193004 70 239 4.0 11.0 0.00 0.00 0.00 69 1016.3
20260508192004 69 252 3.0 9.0 0.00 0.00 0.00 69 1016.3
20260508191025 70 243 3.0 7.0 0.00 0.00 0.00 69 1016.3
20260508190004 69 248 2.0 8.0 0.00 0.00 0.00 70 1016.4
20260508185025 68 227 2.0 4.0 0.00 0.00 0.00 73 1016.4
20260508184004 67 271 2.0 8.0 0.00 0.00 0.00 73 1016.6
20260508183004 66 295 2.0 6.0 0.00 0.00 0.00 75 1016.8
20260508182025 66 300 2.0 7.0 0.00 0.00 0.00 75 1016.9
20260508181004 65 313 2.0 5.0 0.00 0.00 0.00 75 1017.1
20260508180025 65 13 1.0 5.0 0.00 0.00 0.00 76 1017.1
20260508175025 65 261 2.0 4.0 0.00 0.00 0.00 77 1017.1
20260508174004 65 264 1.0 5.0 0.00 0.00 0.00 77 1017.1
20260508173004 64 252 1.0 5.0 0.00 0.00 0.00 77 1017.0
20260508172004 64 251 1.0 2.0 0.00 0.00 0.00 79 1017.2
20260508171025 64 251 1.0 3.0 0.00 0.00 0.00 79 1017.1
20260508170004 63 250 1.0 3.0 0.00 0.00 0.00 81 1017.1
20260508165004 62 236 0.0 4.0 0.00 0.00 0.00 82 1017.2
20260508164004 62 0 0.0 2.0 0.00 0.00 0.00 82 1017.1
20260508163004 62 226 1.0 2.0 0.00 0.00 0.00 83 1017.1
20260508162004 61 225 1.0 3.0 0.00 0.00 0.00 84 1017.1
20260508161025 61 225 0.0 2.0 0.00 0.00 0.00 86 1017.0
20260508160004 60 225 1.0 2.0 0.00 0.00 0.00 87 1017.0
20260508155003 60 225 1.0 3.0 0.00 0.00 0.00 87 1017.1
20260508154004 60 225 1.0 4.0 0.00 0.00 0.00 87 1017.0
20260508153004 59 229 1.0 4.0 0.00 0.00 0.00 88 1017.1
20260508152004 59 232 2.0 4.0 0.00 0.00 0.00 88 1017.2
20260508151004 58 233 2.0 4.0 0.00 0.00 0.00 88 1017.1
20260508150004 58 233 1.0 4.0 0.00 0.00 0.00 89 1017.1
20260508145004 57 232 0.0 4.0 0.00 0.00 0.00 89 1017.1
20260508144003 57 0 0.0 0.0 0.00 0.00 0.00 89 1017.2
20260508143025 57 0 0.0 0.0 0.00 0.00 0.00 89 1017.1
20260508142004 56 0 0.0 0.0 0.00 0.00 0.00 89 1017.1
20260508141003 56 0 0.0 0.0 0.00 0.00 0.00 89 1017.0
20260508140004 55 0 0.0 0.0 0.00 0.00 0.00 89 1017.0
20260508135003 55 0 0.0 0.0 0.00 0.00 0.00 89 1016.8
20260508134025 54 0 0.0 0.0 0.00 0.00 0.00 89 1016.7
20260508133003 54 0 0.0 0.0 0.00 0.00 0.00 89 1016.5
20260508132003 54 0 0.0 0.0 0.00 0.00 0.00 89 1016.5
20260508131003 54 0 0.0 0.0 0.00 0.00 0.00 89 1016.4
20260508130003 54 0 0.0 0.0 0.00 0.00 0.00 89 1016.2
20260508125003 54 0 0.0 0.0 0.00 0.00 0.00 89 1016.3
20260508124025 53 0 0.0 0.0 0.00 0.00 0.00 89 1016.3
20260508123003 53 0 0.0 0.0 0.00 0.00 0.00 89 1016.2
20260508122003 53 0 0.0 0.0 0.00 0.00 0.00 89 1016.2
20260508121003 52 239 0.0 1.0 0.00 0.00 0.00 88 1016.2
20260508120024 53 239 1.0 3.0 0.00 0.00 0.00 88 1016.1
20260508115003 53 239 1.0 2.0 0.00 0.00 0.00 88 1016.0
20260508114003 53 239 1.0 3.0 0.00 0.00 0.00 88 1016.0
20260508113004 53 240 0.0 3.0 0.00 0.00 0.00 88 1015.9
20260508112024 53 240 1.0 2.0 0.00 0.00 0.00 87 1016.0
20260508111003 53 0 0.0 4.0 0.00 0.00 0.00 87 1015.9
20260508110003 54 0 0.0 0.0 0.00 0.00 0.00 87 1015.9
20260508105003 54 241 0.0 2.0 0.00 0.00 0.00 87 1015.9
20260508104003 54 241 1.0 2.0 0.00 0.00 0.00 87 1015.8
20260508103003 54 241 2.0 2.0 0.00 0.00 0.00 87 1015.9
20260508102003 54 0 0.0 1.0 0.00 0.00 0.00 87 1015.9
20260508101024 55 0 0.0 2.0 0.00 0.00 0.00 87 1016.0
20260508100003 55 0 0.0 1.0 0.00 0.00 0.00 87 1015.9
20260508095003 55 0 0.0 1.0 0.00 0.00 0.00 87 1015.9
20260508094003 55 241 0.0 2.0 0.00 0.00 0.00 87 1015.9
20260508093003 55 241 1.0 3.0 0.00 0.00 0.00 87 1015.8
20260508092024 55 241 0.0 3.0 0.00 0.00 0.00 87 1015.8
20260508091003 56 241 1.0 2.0 0.00 0.00 0.00 87 1015.9
20260508090003 56 241 1.0 2.0 0.00 0.00 0.00 87 1015.8
20260508085003 56 241 0.0 3.0 0.00 0.00 0.00 87 1015.9
20260508084003 56 241 0.0 2.0 0.00 0.00 0.00 87 1015.9
20260508083003 56 241 1.0 3.0 0.00 0.00 0.00 87 1016.1
20260508082004 56 241 1.0 3.0 0.00 0.00 0.00 87 1016.2
20260508081005 56 245 1.0 4.0 0.00 0.00 0.00 87 1016.1
20260508080005 56 249 1.0 3.0 0.00 0.00 0.00 86 1016.2
20260508075005 56 249 0.0 2.0 0.00 0.00 0.00 86 1016.3
20260508074004 56 0 0.0 2.0 0.00 0.00 0.00 86 1016.2
20260508073025 57 0 0.0 0.0 0.00 0.00 0.00 86 1016.3
20260508072004 57 0 0.0 2.0 0.00 0.00 0.00 86 1016.2
20260508071004 57 249 1.0 2.0 0.00 0.00 0.00 86 1016.1
20260508070005 57 0 0.0 2.0 0.00 0.00 0.00 85 1016.1
20260508065004 57 0 0.0 2.0 0.00 0.00 0.00 85 1016.1
20260508063004 58 249 1.0 3.0 0.00 0.00 0.00 85 1015.9
20260508062004 58 249 2.0 4.0 0.00 0.00 0.00 85 1015.9
20260508061005 58 249 1.0 5.0 0.00 0.00 0.00 84 1015.7
20260508060005 58 249 0.0 3.0 0.00 0.00 0.00 84 1015.8
20260508055004 59 249 1.0 4.0 0.00 0.00 0.00 84 1015.6
20260508054004 59 0 2.0 2.0 0.00 0.00 0.00 83 1015.5
20260508052005 59 0 1.0 1.0 0.00 0.00 0.00 81 1015.5
20260508051004 59 0 1.0 1.0 0.00 0.00 0.00 81 1015.3
20260508050004 60 0 2.0 2.0 0.00 0.00 0.00 81 1015.3
20260508044004 60 246 0.0 2.0 0.00 0.00 0.00 81 1015.4
20260508043025 60 246 0.0 3.0 0.00 0.00 0.00 80 1015.4
20260508042004 61 247 1.0 4.0 0.00 0.00 0.00 80 1015.3
20260508041004 61 247 1.0 4.0 0.00 0.00 0.00 80 1015.2
20260508040005 61 248 2.0 3.0 0.00 0.00 0.00 79 1015.2
20260508035004 62 249 1.0 5.0 0.00 0.00 0.00 79 1015.1
20260508034004 62 251 1.0 3.0 0.00 0.00 0.00 78 1015.1
20260508033026 62 251 1.0 4.0 0.00 0.00 0.00 77 1015.1
20260508032004 63 251 1.0 3.0 0.00 0.00 0.00 76 1014.8
20260508031004 63 252 1.0 5.0 0.00 0.00 0.00 76 1014.8
20260508030005 64 255 2.0 5.0 0.00 0.00 0.00 74 1014.7
20260508025004 64 259 2.0 4.0 0.00 0.00 0.00 73 1014.6
20260508024025 64 260 2.0 5.0 0.00 0.00 0.00 73 1014.5
20260508023004 65 260 3.0 5.0 0.00 0.00 0.00 72 1014.5
20260508022004 66 265 3.0 7.0 0.00 0.00 0.00 70 1014.4
20260508021004 66 252 3.0 7.0 0.00 0.00 0.00 70 1014.5
20260508020025 67 240 3.0 6.0 0.00 0.00 0.00 68 1014.3
20260508015004 67 255 4.0 9.0 0.00 0.00 0.00 67 1014.4
20260508014004 68 250 3.0 7.0 0.00 0.00 0.00 66 1014.3
20260508013025 69 258 3.0 7.0 0.00 0.00 0.00 64 1014.2
20260508012004 70 246 3.0 7.0 0.00 0.00 0.00 63 1014.2
20260508011004 71 247 3.0 9.0 0.00 0.00 0.00 61 1014.1
20260508010004 71 251 4.0 8.0 0.00 0.00 0.00 60 1014.2
20260508005004 71 240 4.0 11.0 0.00 0.00 0.00 61 1014.3
20260508004004 72 250 5.0 11.0 0.00 0.00 0.00 60 1014.2
20260508003025 72 241 5.0 11.0 0.00 0.00 0.00 60 1014.2
20260508002025 73 247 5.0 11.0 0.00 0.00 0.00 58 1014.3
20260508001004 73 244 5.0 12.0 0.00 0.00 0.00 58 1014.3
20260508000004 74 256 5.0 10.0 0.00 0.00 0.00 57 1014.3
20260507235004 74 245 5.0 11.0 0.00 0.00 0.00 57 1014.4
20260507234004 74 257 6.0 11.0 0.00 0.00 0.00 56 1014.4
20260507233004 75 248 5.0 13.0 0.00 0.00 0.00 56 1014.5
20260507232004 75 238 5.0 12.0 0.00 0.00 0.00 56 1014.4
20260507231004 75 235 5.0 11.0 0.00 0.00 0.00 55 1014.3
20260507230025 75 235 5.0 11.0 0.00 0.00 0.00 55 1014.5
20260507225004 75 238 5.0 14.0 0.00 0.00 0.00 55 1014.7
20260507224004 75 235 5.0 12.0 0.00 0.00 0.00 56 1014.7
20260507223005 75 248 5.0 11.0 0.00 0.00 0.00 56 1014.8
20260507222025 75 250 5.0 13.0 0.00 0.00 0.00 55 1014.8
20260507221004 74 245 6.0 12.0 0.00 0.00 0.00 57 1014.9
20260507220004 74 250 6.0 13.0 0.00 0.00 0.00 56 1015.1
20260507215004 74 240 6.0 13.0 0.00 0.00 0.00 57 1015.2
20260507214025 75 240 6.0 12.0 0.00 0.00 0.00 54 1015.3
20260507213004 75 244 6.0 13.0 0.00 0.00 0.00 55 1015.3
20260507212004 74 247 6.0 12.0 0.00 0.00 0.00 56 1015.4
20260507211004 74 255 8.0 17.0 0.00 0.00 0.00 58 1015.4
20260507210005 74 249 7.0 17.0 0.00 0.00 0.00 58 1015.7
20260507205004 74 243 7.0 14.0 0.00 0.00 0.00 57 1015.8
20260507204004 74 245 6.0 15.0 0.00 0.00 0.00 58 1015.9
20260507203004 74 244 6.0 12.0 0.00 0.00 0.00 58 1015.8